Weather History for Sault Ste Marie, MI

Change the Weather History Date:

Tuesday, July 2, 2013

  Actual Average Record
Temperature  
Mean Temperature 64 °F 64 °F  
Max Temperature 75 °F 75 °F 97 °F (1911)
Min Temperature 53 °F 53 °F 38 °F (1942)
Degree Days  
Heating Degree Days 1 3  
Month to date heating degree days 1 6  
Since 1 June heating degree days 147 186  
Since 1 July heating degree days 1 6  
Cooling Degree Days 0 2  
Month to date cooling degree days 0 4  
Year to date cooling degree days 48 39  
Since 1 June cooling degree days 39 34  
Growing Degree Days 14 (Base 50)    
Moisture  
Dew Point 43 °F    
Average Humidity 49    
Maximum Humidity 69    
Minimum Humidity 29    
Precipitation  
Precipitation 0.00 in 0.08 in 1.52 in (1957)
Month to date precipitation 0.00 0.16  
Year to date precipitation 17.51 13.30  
Sea Level Pressure  
Sea Level Pressure 30.15 in    
Wind  
Wind Speed 4 mph (NNW)    
Max Wind Speed 10 mph    
Max Gust Speed 14 mph    
Visibility 10 miles    
Events      
T = Trace of Precipitation, MM = Missing Value Source: NWS Daily Summary

Daily Weather History Graph

Daily Weather History Graph

Search for Another Location

Airport:

Trip Planner

Search our weather history database for the weather conditions in past years. The results will help you decide how hot, cold, wet, or windy it might be!

Date:

Astronomy

Jul. 02, 2013 Rise Set
Actual Time 5:49 AM EDT 9:33 PM EDT
Civil Twilight 5:10 AM EDT 10:12 PM EDT
Nautical Twilight 4:18 AM EDT 11:04 PM EDT
Astronomical Twilight 3:04 AM EDT 12:17 AM EDT
Moon 2:02 AM EDT (7/2) 4:37 PM EDT (7/2)
Length of Visible Light 17h 01m
Length of Day
15h 44m
Waning Crescent, 26% of the Moon is Illuminated
Jul 2
Waning Crescent
Jul 8
New
Jul 15
First Quarter
Jul 22
Full
Jul 29
Last Quarter

Hourly Weather History & Observations

Time (EDT) Temp. Dew Point Humidity Pressure Visibility Wind Dir Wind Speed Gust Speed Precip Events Conditions
12:55 AM 57.9 °F 43.0 °F 58% 30.19 in 10.0 mi Calm Calm - N/A   Clear
1:55 AM 57.9 °F 43.0 °F 58% 30.19 in 10.0 mi ENE 3.5 mph - N/A   Clear
2:55 AM 57.0 °F 42.1 °F 57% 30.19 in 10.0 mi Calm Calm - N/A   Clear
3:55 AM 55.9 °F 41.0 °F 57% 30.18 in 10.0 mi Calm Calm - N/A   Clear
4:55 AM 55.0 °F 42.1 °F 62% 30.19 in 10.0 mi ENE 3.5 mph - N/A   Clear
5:55 AM 54.0 °F 42.1 °F 64% 30.20 in 10.0 mi ENE 3.5 mph - N/A   Clear
6:55 AM 55.0 °F 41.0 °F 59% 30.20 in 10.0 mi NE 3.5 mph - N/A   Clear
7:55 AM 57.9 °F 43.0 °F 58% 30.20 in 10.0 mi Calm Calm - N/A   Clear
8:55 AM 62.1 °F 43.0 °F 50% 30.20 in 10.0 mi ENE 5.8 mph - N/A   Clear
10:55 AM 66.9 °F 42.1 °F 40% 30.18 in 10.0 mi Variable 4.6 mph - N/A   Clear
11:55 AM 70.0 °F 39.0 °F 32% 30.17 in 10.0 mi Variable 3.5 mph - N/A   Clear
12:55 PM 71.1 °F 39.0 °F 31% 30.16 in 10.0 mi NE 5.8 mph - N/A   Clear
1:55 PM 73.0 °F 39.9 °F 30% 30.15 in 10.0 mi Variable 3.5 mph - N/A   Clear
2:55 PM 73.0 °F 42.1 °F 33% 30.14 in 10.0 mi SE 5.8 mph - N/A   Clear
3:55 PM 73.9 °F 43.0 °F 33% 30.13 in 10.0 mi West 5.8 mph - N/A   Clear
4:55 PM 72.0 °F 42.1 °F 34% 30.12 in 10.0 mi West 8.1 mph - N/A   Clear
5:55 PM 73.0 °F 42.1 °F 33% 30.10 in 10.0 mi NW 9.2 mph - N/A   Clear
6:55 PM 72.0 °F 43.0 °F 35% 30.10 in 10.0 mi WNW 6.9 mph - N/A   Clear
7:55 PM 71.1 °F 43.0 °F 36% 30.10 in 10.0 mi NW 5.8 mph - N/A   Clear
8:55 PM 68.0 °F 43.0 °F 40% 30.10 in 10.0 mi NW 4.6 mph - N/A   Clear
9:55 PM 62.1 °F 43.0 °F 50% 30.11 in 10.0 mi Calm Calm - N/A   Clear
10:55 PM 59.0 °F 48.9 °F 69% 30.12 in 10.0 mi West 4.6 mph - N/A   Clear
11:55 PM 60.1 °F 50.0 °F 69% 30.12 in 10.0 mi NW 3.5 mph - N/A   Clear